• Join FlightAware (Why Join?)
  • Login
  • US Flag 
08:25AM EST


 

Airport Tracker/Info


-or-


 

Live Flight TrackerFlight Track Log ✈ CTL13 ✈ 23-Oct-2013 ✈ KOSU - KEYE

Flight Track Log - Related Links

Times and Time Zones

All times are in EDT time to prevent confusion due to time zone crossing. See the CTL13 flight status page for this flight to view local times or setup timezone preferences in your user account.

Time Position Orientation Groundspeed Altitude Reporting Facility
EDT Latitude Longitude Course Direction KTS MPH feet Rate Location/Type
06:53PM 40.0758 -83.0831 269° West 85 98 1,200  Level Indianapolis Center
06:53PM 40.0756 -83.1103 269° West 92 106 2,300 1,211 Climbing Indianapolis Center
06:54PM 40.0739 -83.1483 267° West 101 116 3,400 1,077 Climbing Indianapolis Center
06:55PM 40.0733 -83.1550 264° West 99 114 3,700 1,063 Climbing Indianapolis Center
06:56PM 40.0722 -83.1947 268° West 104 120 4,800 1,086 Climbing Indianapolis Center
06:57PM 40.0725 -83.2275 271° West 110 127 5,600 968 Climbing Indianapolis Center
06:57PM 40.0714 -83.2342 258° West 108 124 5,800 984 Climbing Indianapolis Center
06:58PM 40.0711 -83.2628 269° West 105 121 6,600 871 Climbing Indianapolis Center
06:58PM 40.0706 -83.2717 265° West 106 122 6,700 800 Climbing Indianapolis Center
06:59PM 40.0692 -83.3064 267° West 109 125 7,400 774 Climbing Indianapolis Center
06:59PM 40.0700 -83.3108 284° West 107 123 7,500 787 Climbing Indianapolis Center
07:00PM 40.0669 -83.3497 264° West 123 142 8,200 677 Climbing Indianapolis Center
07:00PM 40.0667 -83.3644 269° West 122 140 8,200 492 Level Indianapolis Center
07:01PM 40.0642 -83.3983 265° West 136 157 8,700 677 Climbing Indianapolis Center
07:01PM 40.0636 -83.4122 267° West 131 151 8,900 590 Climbing Indianapolis Center
07:02PM 40.0619 -83.4419 266° West 122 140 9,300 677 Climbing Indianapolis Center
07:02PM 40.0611 -83.4556 265° West 122 140 9,600 689 Climbing Indianapolis Center
07:03PM 40.0578 -83.4850 262° West 121 139 10,000 492 Climbing Indianapolis Center
07:03PM 40.0561 -83.4994 261° West 123 142 10,100 -98 Climbing Indianapolis Center
07:04PM 40.0564 -83.5394 271° West 159 183 9,900 -97 Descending Indianapolis Center
07:04PM 40.0556 -83.5528 265° West 142 163 10,000 100 Climbing Indianapolis Center
07:05PM 40.0528 -83.5964 265° West 151 174 10,000 -97 Level Indianapolis Center
07:05PM 40.0542 -83.6189 275° West 152 175 9,900  Descending Indianapolis Center
07:06PM 40.0517 -83.6508 264° West 151 174 10,000 97 Climbing Indianapolis Center
07:06PM 40.0514 -83.6722 269° West 150 173 10,000  Level Indianapolis Center
07:07PM 40.0503 -83.7053 267° West 148 170 10,000  Level Indianapolis Center
07:07PM 40.0481 -83.7250 262° West 148 170 10,000  Level Indianapolis Center
07:08PM 40.0489 -83.7597 272° West 150 173 10,000 -97 Level Indianapolis Center
07:08PM 40.0472 -83.7792 264° West 149 171 9,900 -98 Descending Indianapolis Center
07:09PM 40.0456 -83.8139 266° West 152 175 9,900  Level Indianapolis Center
07:09PM 40.0444 -83.8347 266° West 153 176 9,900  Level Indianapolis Center
07:10PM 40.0417 -83.8708 264° West 153 176 9,900  Level Indianapolis Center
07:10PM 40.0414 -83.8897 269° West 153 176 9,900 98 Level Indianapolis Center
07:11PM 40.0400 -83.9281 267° West 155 178 10,000 97 Climbing Indianapolis Center
07:11PM 40.0389 -83.9558 267° West 152 175 10,000  Level Indianapolis Center
07:12PM 40.0367 -83.9819 264° West 152 175 10,000  Level Indianapolis Center
07:12PM 40.0350 -84.0108 266° West 153 176 10,000  Level Indianapolis Center
07:13PM 40.0328 -84.0389 264° West 153 176 10,000  Level Indianapolis Center
07:13PM 40.0314 -84.0656 266° West 152 175 10,000 -100 Level Indianapolis Center
07:14PM 40.0292 -84.0931 264° West 153 176 9,900  Descending Indianapolis Center
07:14PM 40.0281 -84.1200 267° West 152 175 10,000 98 Climbing Indianapolis Center
07:15PM 40.0256 -84.1469 263° West 152 175 10,000  Level Indianapolis Center
07:15PM 40.0253 -84.1756 269° West 153 176 10,000  Level Indianapolis Center
07:16PM 40.0239 -84.2042 266° West 152 175 10,000  Level Indianapolis Center
07:16PM 40.0214 -84.2319 263° West 155 178 10,000  Level Indianapolis Center
07:17PM 40.0161 -84.2969 264° West 152 175 10,000  Level Indianapolis Center
07:18PM 40.0142 -84.3147 262° West 150 173 10,000  Level Indianapolis Center
07:18PM 40.0136 -84.3519 269° West 152 175 10,000  Level Indianapolis Center
07:19PM 40.0122 -84.3719 265° West 151 174 10,000  Level Indianapolis Center
07:20PM 40.0100 -84.4061 265° West 151 174 10,000 -98 Level Indianapolis Center
07:20PM 40.0086 -84.4258 265° West 154 177 9,900 -97 Descending Indianapolis Center
07:21PM 40.0061 -84.4633 265° West 156 180 9,900 100 Level Indianapolis Center
07:21PM 40.0047 -84.4800 264° West 154 177 10,000  Climbing Indianapolis Center
07:22PM 40.0028 -84.5167 266° West 151 174 9,900 -98 Descending Indianapolis Center
07:22PM 40.0025 -84.5397 269° West 152 175 9,900  Level Indianapolis Center
07:23PM 40.0003 -84.5714 265° West 151 174 9,900 98 Level Indianapolis Center
07:23PM 39.9986 -84.5939 264° West 147 169 10,000 194 Climbing Indianapolis Center
07:24PM 39.9969 -84.6333 267° West 145 167 10,100  Climbing Indianapolis Center
07:24PM 39.9953 -84.6453 260° West 144 166 10,000 -97 Descending Indianapolis Center
07:25PM 39.9928 -84.6875 266° West 148 170 10,000  Level Indianapolis Center
07:25PM 39.9914 -84.6992 261° West 148 170 10,000  Level Indianapolis Center
07:26PM 39.9894 -84.7403 266° West 147 169 10,000  Level Indianapolis Center
07:26PM 39.9900 -84.7511 274° West 149 171 10,000  Level Indianapolis Center
07:27PM 39.9856 -84.8078 264° West 147 169 10,000  Level Indianapolis Center
07:28PM 39.9817 -84.8464 263° West 147 169 10,000  Level Indianapolis Center
07:28PM 39.9817 -84.8617 270° West 146 168 10,000  Level Indianapolis Center
07:29PM 39.9778 -84.9158 265° West 149 171 10,000  Level Indianapolis Center
07:30PM 39.9733 -84.9569 262° West 145 167 10,000  Level Indianapolis Center
07:31PM 39.9675 -85.0106 262° West 148 170 10,000  Level Indianapolis Center
07:32PM 39.9653 -85.0633 267° West 148 170 10,000 -48 Level Indianapolis Center
07:33PM 39.9594 -85.1275 263° West 149 171 9,900 -48 Descending Indianapolis Center
07:34PM 39.9544 -85.1792 263° West 146 168 9,900  Level Indianapolis Center
07:35PM 39.9486 -85.2319 262° West 148 170 9,900 -195 Level Indianapolis Center
07:36PM 39.9442 -85.2847 264° West 146 168 9,500 -484 Descending Indianapolis Center
07:37PM 39.9386 -85.3450 263° West 163 188 8,900 -532 Descending Indianapolis Center
07:38PM 39.9336 -85.4053 264° West 168 193 8,400 -484 Descending Indianapolis Center
07:39PM 39.9261 -85.4747 262° West 163 188 7,900 -488 Descending Indianapolis Center
07:40PM 39.9189 -85.5342 261° West 165 190 7,400 -488 Descending Indianapolis Center
07:41PM 39.9108 -85.5928 260° West 166 191 6,900 -435 Descending Indianapolis Center
07:42PM 39.9039 -85.6506 261° West 165 190 6,500 -387 Descending Indianapolis Center
07:43PM 39.8981 -85.7094 263° West 164 189 6,100 -387 Descending Indianapolis Center
07:44PM 39.8911 -85.7669 261° West 163 188 5,700 -439 Descending Indianapolis Center
07:45PM 39.8892 -85.8228 267° West 159 183 5,200 -537 Descending Indianapolis Center
07:46PM 39.8975 -85.8933 279° West 162 186 4,600 -532 Descending Indianapolis Center
07:47PM 39.8875 -85.9511 257° West 163 188 4,100 -634 Descending Indianapolis Center
07:48PM 39.8783 -86.0097 258° West 165 190 3,300 -585 Descending Indianapolis Center
07:49PM 39.8689 -86.0675 258° West 165 190 2,900 -194 Descending Indianapolis Center
07:50PM 39.8594 -86.1261 258° West 161 185 2,900  Level Indianapolis Center